Wind_Speed
25 24 18 17 13 12 19 14 14 14 12 16 16 18 14 16 24 17 18 22 20 19 14 14 13 12 10 8 6 6 6 5 5 5 6 6 7 7 8 8 7 6 5 6 7 6 5 5 3
30 30 22 16 15 17 23 19 13 9 13 18 16 17 16 14 12 14 18 21 20 18 15 15 15 14 12 11 9 7 6 6 6 6 6 7 7 8 9 8 8 8 7 6 7 7 7 6 5
34 32 31 27 21 25 27 24 13 9 10 14 19 15 17 15 14 11 17 20 20 18 18 17 17 16 13 10 11 11 7 6 6 6 6 6 7 7 8 8 9 10 9 7 6 6 6 5 6
33 30 33 35 29 34 32 23 15 14 12 13 15 22 19 18 16 15 16 20 22 20 20 19 18 17 14 11 8 9 13 10 8 7 7 7 6 7 7 8 10 10 10 9 8 7 7 7 8
35 34 33 35 42 38 35 24 13 12 14 19 17 20 21 21 21 17 17 18 20 23 23 22 20 19 16 12 9 7 8 12 12 9 8 8 8 9 9 9 9 9 9 9 10 10 9 10 10
35 39 26 39 46 46 35 28 16 11 12 15 15 17 20 20 20 17 20 18 18 23 24 24 22 21 18 13 10 6 4 7 10 13 11 9 9 10 10 10 10 10 11 10 10 10 11 11 10
37 40 35 38 46 44 37 31 19 11 13 13 17 20 21 20 22 18 18 22 19 24 26 26 24 23 21 16 11 8 4 3 6 9 12 12 11 10 10 10 10 11 10 10 10 11 10 10 10
36 38 38 34 45 46 39 39 22 10 12 15 18 25 23 23 20 20 18 21 22 22 28 28 27 24 22 19 14 11 7 5 3 3 7 11 11 11 10 10 9 10 10 11 11 10 10 10 9
37 36 40 45 38 42 36 43 22 17 18 10 22 20 20 20 20 22 23 22 25 25 27 30 29 26 23 20 18 14 11 8 7 5 2 2 7 7 9 8 7 8 8 7 8 8 9 10 11
35 39 43 43 40 36 27 52 34 22 17 12 16 19 20 19 18 19 20 19 21 20 23 28 28 26 23 21 18 16 14 12 12 11 8 5 4 2 2 4 4 5 6 6 6 7 8 9 9
37 43 42 40 36 29 25 44 39 26 22 7 18 22 22 20 18 21 19 17 16 17 18 22 25 24 21 20 21 20 19 18 16 15 12 10 9 8 8 8 8 8 7 6 6 8 9 10 11
38 42 37 31 26 27 27 33 41 28 24 9 13 22 20 19 18 17 22 18 17 15 13 14 17 20 20 20 20 20 20 20 20 19 17 14 13 12 12 12 13 12 11 11 11 11 11 12 13
40 35 37 34 25 35 17 29 24 28 20 4 13 22 22 17 18 19 19 20 18 17 15 14 14 15 16 16 17 18 20 20 20 19 19 18 17 16 16 16 15 15 15 15 16 16 16 16 16
32 31 25 24 31 36 33 15 18 21 21 8 12 22 26 20 18 20 18 18 20 20 18 17 16 15 14 15 16 17 16 16 16 17 18 18 18 17 18 18 17 16 16 18 19 19 19 19 19
8 30 17 24 29 28 36 38 26 25 21 20 13 19 22 24 22 20 19 20 19 20 21 21 20 18 16 16 15 14 14 14 15 16 17 17 16 17 18 18 17 17 17 18 19 19 20 21 21
29 15 30 22 20 21 26 46 39 28 29 30 23 20 20 18 19 21 22 22 24 25 25 24 23 21 21 20 18 17 16 16 17 18 18 18 18 20 19 19 18 18 18 18 18 19 20 21 22
28 27 27 31 26 25 32 41 45 33 34 33 25 27 26 25 27 28 27 25 25 27 27 27 26 26 24 22 22 21 19 18 18 18 18 18 19 19 20 18 18 19 20 21 23 24 25 25 26
32 27 28 28 31 28 31 35 25 36 33 37 38 36 34 33 32 30 28 28 28 29 31 31 30 30 30 29 28 26 24 23 22 20 21 21 21 22 22 22 22 24 25 24 25 25 25 26 28
25 31 19 29 25 30 30 29 34 27 37 40 33 38 33 35 32 34 36 34 31 31 32 32 33 33 32 32 31 29 28 28 27 25 24 25 24 24 24 24 26 28 27 26 26 27 28 27 27
27 28 28 10 15 30 30 29 22 23 36 36 44 32 38 33 33 33 32 33 33 31 31 31 33 36 36 37 37 36 34 32 31 30 30 29 29 29 29 29 30 31 30 29 30 30 30 30 31
19 23 31 19 17 24 25 31 29 28 27 37 40 43 33 31 31 29 35 34 33 31 30 31 34 34 32 33 34 36 36 37 35 34 33 31 32 32 34 34 33 32 33 34 33 32 33 34 34
18 18 19 26 14 15 23 8 28 34 33 34 40 45 49 45 35 32 31 36 36 35 35 34 34 35 35 35 35 36 37 37 35 36 36 36 36 37 39 39 38 37 37 38 38 38 39 38 38
23 17 15 21 18 14 20 12 21 14 25 35 39 41 46 41 39 35 35 36 36 34 32 30 31 34 35 36 38 38 39 39 39 39 40 40 40 41 42 42 41 40 42 43 43 40 38 37 38
23 24 18 15 15 8 24 24 19 27 31 24 33 37 41 40 41 40 39 38 38 38 36 34 33 33 34 34 35 37 38 38 38 38 38 37 38 40 41 40 39 38 38 38 35 34 35 35 35
22 23 4 3 5 5 15 21 37 15 22 25 26 33 41 44 41 41 42 43 44 42 38 36 35 33 31 32 33 34 35 35 36 35 36 35 35 35 34 33 30 33 34 34 34 32 33 34 35
27 22 6 5 4 3 8 16 28 17 28 18 23 23 35 41 38 37 37 36 34 34 33 30 29 27 26 27 28 29 30 31 31 32 32 31 30 29 29 28 27 28 29 31 32 32 32 32 33
27 21 17 1 2 1 9 14 17 19 21 22 18 23 27 32 34 33 32 29 26 26 26 25 24 23 23 23 24 25 26 26 26 26 26 25 25 25 24 24 25 26 28 29 29 30 31 32 34
19 25 13 10 3 4 5 10 18 16 21 22 21 22 27 30 28 27 25 23 22 22 22 22 22 22 23 24 25 26 27 27 27 28 28 27 27 27 27 28 28 29 31 31 31 32 33 34 36
20 21 13 9 6 4 1 7 12 22 21 17 23 22 20 20 21 21 20 20 19 20 20 21 23 24 26 27 28 29 29 29 30 31 31 31 32 32 32 32 31 32 32 32 32 32 33 32 32
26 20 25 10 7 7 2 5 8 14 20 19 19 21 19 16 17 18 17 17 17 18 18 19 21 22 24 26 28 29 29 29 30 31 32 33 33 33 31 30 30 30 30 30 30 29 27 26 29
Wind_Direction
231 228 222 209 207 218 218 203 146 160 190 218 207 221 218 188 180 184 177 171 167 168 161 152 142 124 111 110 105 101 97 99 92 85 78 75 73 72 71 69 67 66 67 66 76 83 88 89 92
223 225 221 222 214 213 214 188 156 169 168 202 206 216 223 192 174 173 167 170 170 169 172 163 152 136 118 100 92 92 92 90 87 85 80 77 74 69 69 70 69 70 69 68 68 68 69 73 75
218 221 221 225 228 217 213 190 193 176 184 211 205 210 221 206 191 168 168 179 176 182 178 173 164 152 138 113 85 72 80 92 92 85 85 84 82 79 74 71 66 64 69 72 67 63 62 63 65
210 210 213 216 228 217 207 201 194 180 185 216 228 224 223 216 202 176 172 182 183 190 182 180 174 167 153 134 104 73 67 76 90 87 80 79 76 72 70 67 64 60 63 66 65 61 61 59 58
208 210 207 213 221 225 207 200 170 186 188 236 239 224 218 215 214 194 181 189 193 192 188 185 181 179 168 156 134 98 61 53 64 75 75 75 71 69 65 62 63 64 62 63 60 54 51 50 50
204 205 208 216 219 221 213 210 203 195 187 211 219 217 204 215 218 206 196 194 198 194 195 190 187 185 180 175 159 135 80 39 41 48 55 59 63 63 61 60 58 58 57 54 53 50 47 44 44
211 208 213 220 222 223 213 234 213 210 194 225 214 206 202 207 211 210 211 209 204 198 199 196 194 191 190 188 181 168 145 87 34 25 30 39 45 50 54 54 53 52 51 49 45 43 38 36 36
212 213 215 219 222 226 211 226 212 229 187 199 214 210 204 211 206 207 201 202 202 198 198 199 199 198 198 200 197 193 191 171 122 70 28 17 31 36 33 34 36 37 40 41 39 35 29 22 15
207 211 216 221 223 226 207 215 209 221 207 201 215 219 211 212 206 200 201 197 199 202 201 201 202 203 206 208 211 212 210 199 189 182 138 70 23 25 24 14 16 22 24 23 20 14 10 5 2
204 211 220 224 224 225 211 207 220 228 209 225 218 209 203 203 202 200 201 205 203 204 199 202 205 208 211 216 220 222 221 215 212 211 213 219 225 230 272 320 327 344 1 3 348 339 333 331 330
207 215 218 223 224 221 218 206 222 216 213 186 214 206 202 200 200 199 199 200 187 191 202 206 208 211 214 219 224 227 227 228 226 228 230 236 240 246 255 263 263 267 274 285 312 320 320 319 308
210 217 219 216 210 209 209 216 228 229 203 203 196 216 205 213 214 208 203 204 196 190 192 204 209 213 218 224 228 231 235 236 237 238 245 250 255 258 262 264 268 270 273 274 274 277 295 299 299
210 216 218 216 211 226 223 228 223 234 184 156 202 210 206 212 216 218 213 213 207 206 208 215 217 220 220 221 228 234 237 239 241 244 248 252 255 258 263 266 268 271 274 276 277 278 278 282 285
217 213 219 211 220 229 214 206 211 217 166 184 202 221 209 207 217 220 222 222 223 224 226 229 226 225 230 236 235 240 241 243 245 248 250 253 252 253 258 265 269 272 274 277 279 280 282 282 285
197 215 200 214 214 223 211 226 213 212 216 213 199 197 205 210 213 223 224 226 226 230 231 230 233 238 238 243 244 248 251 248 247 247 245 248 255 260 263 266 272 274 276 278 281 283 283 285 286
200 189 208 204 198 211 214 219 218 206 202 211 195 196 201 213 223 228 232 228 228 229 232 237 239 239 236 241 241 245 251 254 253 252 251 256 262 264 265 269 271 273 276 278 280 280 281 283 284
198 204 200 201 206 203 206 221 219 213 219 195 208 228 213 213 225 229 232 234 228 226 229 232 241 244 242 241 243 246 253 256 259 259 265 267 265 267 269 269 272 277 282 285 283 282 282 281 282
193 197 204 199 201 197 213 220 224 220 217 224 220 231 237 223 226 230 232 237 239 230 228 231 234 239 247 248 244 246 252 257 257 261 267 269 270 270 270 272 278 283 287 291 291 289 289 290 289
199 190 202 208 205 209 217 229 225 221 228 235 229 224 226 228 231 239 241 240 238 238 231 232 234 239 240 244 248 251 258 260 260 260 258 262 266 272 272 274 278 284 286 289 288 289 287 287 287
198 200 206 211 197 211 228 241 237 228 232 226 232 238 227 232 240 243 241 238 240 241 243 238 237 237 238 240 247 253 256 256 259 261 261 261 266 269 272 273 275 276 279 281 284 286 285 285 285
192 201 208 210 194 219 229 245 237 234 230 224 222 222 220 227 239 238 239 241 242 242 241 244 248 248 245 245 245 247 251 255 260 265 268 269 268 267 269 270 272 274 277 278 279 279 282 285 282
180 185 197 206 213 205 218 263 242 231 228 226 219 222 222 239 239 239 239 240 243 247 251 254 252 254 255 252 249 250 252 254 258 261 263 263 264 267 269 270 273 274 276 277 280 281 283 282 282
202 200 196 189 195 205 213 240 251 225 232 228 221 220 222 228 234 232 236 241 244 246 248 251 252 250 251 254 258 256 256 258 257 257 260 262 264 265 266 268 269 271 274 276 280 282 282 279 278
201 205 203 200 197 232 220 213 265 244 239 240 229 222 223 222 226 226 228 237 245 251 254 255 254 254 254 253 256 259 262 262 262 263 262 259 259 260 263 266 269 271 273 274 275 276 276 276 276
196 187 141 154 211 218 201 208 235 242 241 244 243 229 220 228 229 233 238 243 246 249 253 255 257 256 253 251 249 251 253 257 261 262 263 263 262 263 264 265 264 266 269 273 273 274 274 275 278
188 192 178 182 203 209 168 225 233 237 249 245 231 231 228 229 236 240 246 245 247 248 249 250 251 249 248 247 247 248 251 253 255 258 261 263 265 265 267 271 270 269 267 268 276 278 278 280 281
191 213 216 190 234 316 216 248 243 247 239 234 244 227 230 235 243 248 246 241 236 234 235 237 237 239 242 244 246 248 251 253 256 258 260 261 263 265 267 268 268 269 271 274 276 277 278 280 283
193 201 204 212 178 250 263 247 239 255 247 232 233 230 229 233 237 235 228 223 222 226 231 234 239 242 244 247 248 249 251 253 255 257 259 260 262 264 264 265 267 268 269 270 271 274 277 280 280
197 200 203 200 206 180 282 260 255 252 247 250 228 225 227 234 227 219 215 218 223 229 236 241 246 249 251 252 253 254 254 255 256 258 260 263 264 265 266 269 270 269 270 273 274 275 276 278 282
211 211 204 204 201 206 214 280 253 237 237 240 238 230 228 226 218 217 219 225 232 239 245 249 251 255 256 255 255 256 256 258 260 262 263 264 266 267 268 268 268 269 270 272 274 275 278 284 286
Height
3143 3146 3148 3151 3158 3153 3152 3154 3156 3158 3161 3163 3165 3166 3167 3167 3171 3176 3175 3176 3178 3182 3185 3186 3187 3189 3190 3191 3192 3192 3192 3192 3192 3192 3191 3191 3191 3190 3190 3189 3189 3188 3188 3186 3186 3186 3186 3186 3186
3139 3142 3144 3146 3149 3148 3149 3151 3155 3157 3159 3162 3164 3164 3165 3166 3168 3171 3174 3176 3179 3182 3184 3186 3187 3189 3191 3192 3193 3193 3193 3193 3193 3193 3193 3192 3192 3192 3191 3191 3190 3190 3189 3189 3188 3188 3188 3188 3189
3133 3138 3142 3143 3143 3143 3145 3150 3153 3155 3158 3160 3162 3162 3163 3166 3167 3170 3173 3175 3177 3180 3183 3185 3187 3189 3191 3192 3193 3194 3194 3194 3194 3194 3194 3194 3193 3193 3193 3192 3191 3191 3191 3191 3191 3191 3190 3191 3190
3128 3133 3136 3135 3135 3139 3141 3146 3149 3152 3155 3158 3160 3160 3161 3164 3166 3169 3172 3174 3176 3178 3181 3184 3186 3189 3191 3192 3193 3194 3195 3195 3195 3195 3195 3195 3195 3194 3194 3194 3193 3193 3193 3193 3192 3192 3192 3192 3191
3122 3126 3129 3129 3131 3135 3138 3143 3147 3148 3151 3156 3156 3157 3159 3161 3163 3168 3171 3173 3175 3177 3180 3183 3185 3188 3190 3192 3193 3194 3195 3196 3196 3196 3196 3196 3196 3196 3195 3195 3195 3195 3195 3195 3194 3194 3193 3192 3192
3117 3120 3121 3121 3125 3131 3137 3141 3145 3147 3150 3154 3154 3155 3157 3159 3161 3165 3169 3171 3173 3176 3179 3181 3184 3186 3189 3191 3192 3194 3195 3196 3196 3196 3196 3196 3196 3196 3196 3196 3196 3196 3196 3196 3196 3195 3194 3194 3195
3109 3113 3114 3118 3123 3127 3133 3136 3143 3143 3145 3152 3152 3153 3155 3156 3159 3163 3167 3169 3171 3173 3177 3179 3182 3185 3188 3190 3192 3193 3194 3195 3196 3196 3197 3197 3197 3197 3198 3198 3198 3198 3198 3197 3197 3196 3196 3196 3196
3106 3110 3112 3114 3119 3121 3130 3135 3138 3141 3142 3149 3149 3148 3152 3152 3157 3160 3163 3166 3168 3171 3174 3178 3180 3183 3185 3188 3190 3192 3194 3195 3195 3195 3196 3197 3198 3198 3198 3198 3199 3199 3198 3198 3198 3198 3198 3198 3198
3100 3104 3104 3109 3115 3120 3129 3132 3135 3136 3138 3142 3146 3148 3151 3151 3154 3157 3159 3162 3165 3168 3171 3175 3178 3181 3183 3186 3189 3191 3193 3193 3194 3195 3196 3196 3197 3198 3199 3199 3199 3198 3198 3198 3198 3199 3198 3198 3198
3095 3097 3100 3107 3113 3117 3123 3124 3129 3131 3135 3138 3143 3145 3146 3149 3152 3154 3157 3161 3164 3167 3169 3172 3175 3178 3182 3185 3187 3190 3191 3193 3194 3194 3195 3196 3197 3197 3197 3198 3198 3197 3198 3198 3198 3198 3198 3197 3197
3089 3091 3099 3103 3110 3113 3115 3121 3125 3127 3131 3136 3142 3143 3144 3147 3150 3154 3156 3159 3162 3164 3167 3170 3173 3176 3180 3183 3185 3187 3189 3191 3192 3193 3194 3195 3196 3196 3196 3197 3197 3197 3197 3197 3197 3197 3197 3196 3196
3085 3088 3094 3102 3105 3106 3114 3119 3118 3123 3129 3134 3138 3142 3142 3145 3147 3151 3154 3156 3160 3162 3165 3168 3171 3174 3177 3180 3182 3184 3187 3188 3190 3191 3192 3193 3193 3194 3195 3195 3196 3196 3196 3196 3196 3195 3195 3194 3194
3080 3085 3091 3098 3101 3106 3113 3116 3119 3122 3124 3130 3134 3137 3140 3142 3145 3149 3151 3153 3157 3160 3164 3166 3169 3172 3175 3177 3179 3181 3183 3185 3186 3188 3189 3190 3191 3191 3192 3193 3193 3193 3194 3194 3193 3193 3193 3192 3191
3079 3085 3090 3095 3099 3104 3110 3116 3115 3120 3121 3128 3130 3135 3136 3140 3143 3146 3149 3151 3154 3157 3161 3163 3167 3170 3172 3174 3177 3179 3180 3182 3183 3184 3186 3187 3188 3189 3189 3190 3190 3191 3191 3191 3190 3190 3189 3189 3188
3079 3084 3089 3092 3097 3100 3108 3110 3111 3117 3118 3123 3129 3130 3133 3137 3139 3144 3148 3151 3151 3154 3157 3160 3163 3166 3168 3171 3173 3174 3176 3178 3180 3181 3182 3184 3185 3186 3186 3187 3187 3186 3187 3187 3187 3186 3186 3185 3184
3077 3081 3085 3089 3093 3097 3103 3100 3109 3116 3118 3121 3125 3128 3131 3132 3137 3141 3144 3147 3150 3151 3154 3156 3159 3162 3165 3167 3169 3171 3173 3174 3176 3178 3179 3180 3181 3182 3182 3183 3183 3183 3183 3183 3183 3182 3181 3181 3180
3072 3073 3078 3085 3088 3092 3096 3096 3104 3112 3113 3117 3122 3126 3127 3129 3131 3135 3139 3142 3146 3149 3150 3152 3154 3156 3159 3162 3164 3166 3168 3170 3172 3173 3174 3175 3176 3177 3178 3178 3179 3179 3179 3179 3178 3177 3176 3176 3175
3062 3072 3076 3080 3086 3089 3091 3094 3099 3106 3110 3113 3117 3121 3122 3125 3128 3131 3134 3137 3139 3143 3146 3148 3150 3153 3154 3156 3159 3161 3163 3165 3167 3169 3170 3171 3171 3172 3173 3173 3173 3173 3173 3173 3172 3171 3170 3170 3169
3065 3072 3075 3080 3086 3087 3088 3091 3096 3101 3103 3107 3111 3114 3118 3121 3125 3127 3130 3132 3133 3135 3140 3143 3146 3149 3150 3151 3153 3156 3159 3161 3162 3164 3166 3166 3166 3167 3167 3167 3168 3167 3167 3167 3167 3166 3165 3165 3163
3065 3069 3075 3080 3084 3088 3090 3088 3094 3096 3096 3101 3105 3109 3113 3117 3120 3123 3124 3126 3128 3131 3134 3138 3141 3142 3144 3147 3149 3150 3152 3154 3155 3157 3158 3160 3161 3162 3162 3162 3162 3162 3161 3161 3161 3159 3159 3159 3157
3063 3067 3073 3079 3082 3086 3088 3086 3087 3087 3089 3093 3097 3103 3108 3110 3113 3116 3118 3120 3123 3126 3129 3131 3132 3135 3139 3142 3144 3144 3145 3147 3149 3151 3153 3154 3155 3154 3155 3155 3156 3156 3154 3153 3154 3153 3152 3151 3151
3062 3067 3073 3077 3080 3081 3085 3079 3076 3079 3080 3084 3088 3093 3099 3102 3106 3109 3112 3115 3117 3120 3123 3125 3126 3128 3130 3132 3135 3138 3139 3141 3143 3144 3145 3145 3146 3147 3148 3147 3147 3147 3146 3144 3145 3145 3144 3143 3142
3062 3066 3070 3076 3078 3079 3080 3082 3070 3074 3074 3075 3079 3085 3091 3096 3100 3103 3106 3109 3111 3113 3116 3118 3120 3122 3123 3124 3125 3128 3130 3133 3135 3136 3137 3138 3139 3139 3138 3138 3138 3138 3137 3137 3137 3136 3135 3134 3133
3061 3066 3070 3074 3077 3078 3076 3079 3062 3066 3066 3072 3076 3079 3086 3088 3091 3096 3100 3103 3105 3107 3109 3111 3113 3115 3116 3118 3119 3119 3121 3123 3125 3126 3127 3129 3130 3130 3130 3130 3130 3129 3129 3128 3128 3127 3127 3125 3125
3058 3064 3068 3073 3072 3069 3068 3074 3056 3060 3062 3064 3069 3073 3077 3081 3086 3090 3093 3095 3098 3100 3103 3104 3105 3106 3108 3110 3111 3113 3114 3115 3116 3117 3118 3119 3120 3121 3121 3122 3123 3123 3121 3120 3119 3119 3119 3118 3117
3055 3060 3061 3067 3068 3064 3064 3058 3051 3055 3058 3060 3063 3066 3071 3075 3079 3083 3086 3088 3091 3093 3095 3097 3098 3099 3101 3102 3104 3105 3106 3108 3109 3109 3109 3109 3110 3111 3112 3112 3113 3113 3113 3112 3111 3111 3111 3109 3108
3053 3057 3061 3063 3063 3062 3057 3051 3050 3051 3056 3058 3060 3062 3066 3070 3075 3079 3080 3082 3085 3088 3089 3091 3093 3094 3095 3096 3098 3099 3100 3101 3102 3102 3103 3103 3103 3104 3105 3105 3106 3105 3105 3106 3105 3104 3103 3101 3100
3050 3057 3061 3061 3061 3062 3051 3049 3046 3046 3050 3053 3055 3060 3062 3066 3070 3073 3075 3077 3080 3083 3084 3086 3088 3089 3090 3091 3092 3093 3094 3095 3095 3095 3096 3097 3098 3098 3099 3099 3099 3099 3099 3099 3098 3097 3096 3095 3093
3049 3051 3054 3056 3056 3054 3055 3044 3042 3043 3047 3050 3053 3056 3060 3063 3066 3069 3070 3072 3076 3079 3080 3080 3082 3083 3085 3086 3086 3086 3087 3088 3088 3089 3089 3089 3090 3090 3091 3091 3092 3091 3091 3090 3089 3088 3087 3085 3083
3044 3045 3048 3050 3051 3049 3049 3044 3041 3041 3042 3047 3050 3054 3058 3061 3063 3066 3067 3069 3072 3073 3075 3075 3076 3077 3078 3079 3079 3079 3080 3080 3081 3081 3081 3081 3081 3081 3082 3083 3083 3083 3082 3082 3081 3080 3079 3076 3075